This demonstration page uses our WeatherBlox Daily Observations layout. Learn more.

38.88101, -77.10428

Hourly Observations for November 30, 2016

Temp ( °F °C ) Dew Point ( °F °C ) Humidity (%) Winds ( mph kmh ) Pressure ( in mb ) Visibility ( mi km ) Precip ( " mm )
12:14 am 00:14 Cloudy with Mist and Fog 52 11 52 11 100 100 Calm 29.91 1013 4 6.437376 0 0
12:52 am 00:52 Cloudy with Mist and Fog 57 13.9 57 13.9 100 100 Calm 29.91 1013 5 8.04672 0 0
1:13 am 01:13 Cloudy with Mist and Fog 54 12.2 54 12.2 100 100 Calm 29.91 1013 2 3.218688 0 0
1:17 am 01:17 Cloudy with Mist and Fog 54 12.2 54 12.2 100 100 NE 3 6 29.91 1013 4 6.437376 0 0
1:52 am 01:52 Cloudy with Mist and Fog 57 13.9 57 13.9 100 100 Calm 29.91 1013 4 6.437376 0 0
2:00 am 02:00 Cloudy with Mist and Fog 57 14 57 14 100 100 Calm 29.91 1013 2.5 4.02336 0 0
2:11 am 02:11 Cloudy with Mist and Fog 57 13.9 57 13.9 100 100 N 3 6 29.91 1013 5 8.04672 0 0
2:52 am 02:52 Cloudy with Mist and Fog 54 12.2 54 12.2 100 100 NE 3 6 29.91 1013 3 4.828032 0 0
2:59 am 02:59 Cloudy with Mist and Fog 55 12.8 55 12.8 100 100 E 5 7 29.91 1013 3 4.828032 0 0
3:10 am 03:10 Cloudy with Mist and Fog 55 13 55 13 100 100 NNE 3 6 29.91 1013 4 6.437376 0 0
3:48 am 03:48 Cloudy with Mist and Fog 57 14 57 14 100 100 NNE 5 7 29.91 1013 2 3.218688 0 0
3:52 am 03:52 Cloudy with Mist and Fog 56 13.3 56 13.3 100 100 NNE 5 7 29.88 1012 2 3.218688 0 0
3:55 am 03:55 Cloudy with Fog 55 12.8 55 12.8 100 100 NNE 5 7 29.88 1012 0.5 0.804672 0 0
4:17 am 04:17 Cloudy with Fog 55 12.8 55 12.8 100 100 ENE 8 13 29.88 1012 0.25 0.402336 0 0
4:19 am 04:19 Mostly Cloudy with Fog 55 12.8 55 12.8 100 100 ENE 7 11 29.88 1012 0.25 0.402336 0 0
4:37 am 04:37 Cloudy with Mist and Fog 57 13.9 57 13.9 100 100 SSW 3 6 29.88 1012 1.5 2.414016 0 0
4:41 am 04:41 Cloudy with Mist and Fog 57 13.9 57 13.9 100 100 SSW 3 6 29.88 1012 4 6.437376 0 0
4:52 am 04:52 Cloudy with Light Drizzle 57 13.9 57 13.9 100 100 SW 3 6 29.88 1012 4 6.437376 0.001 0.001
5:02 am 05:02 Cloudy with Mist and Fog 57 14 57 14 100 100 Calm 29.88 1012 4 6.437376 0 0
5:52 am 05:52 Cloudy with Light Rain 57 13.9 57 13.9 100 100 Calm 29.91 1013 3 4.828032 0.001 0.001
6:12 am 06:12 Cloudy with Light Rain 57 14 57 14 100 100 Calm 29.91 1013 3 4.828032 0 0
6:52 am 06:52 Cloudy with Light Rain 57 13.9 57 13.9 100 100 NE 5 7 29.88 1012 3 4.828032 0.01 0.254
7:00 am 07:00 Cloudy with Light Rain 55 13 55 13 100 100 ENE 6 9 29.88 1012 3 4.828032 0 0
7:46 am 07:46 Cloudy with Rain 59 15 59 15 100 100 NNE 5 7 29.85 1011 2 3.218688 0 0
7:52 am 07:52 Cloudy with Light Rain 59 15 59 15 100 100 NNE 3 6 29.85 1011 3 4.828032 0.01 0.254
7:54 am 07:54 Cloudy with Light Rain 59 15 59 15 100 100 NNE 3 6 29.85 1011 3 4.828032 0 0
7:56 am 07:56 Cloudy with Light Rain 59 15 59 15 100 100 NNE 5 7 29.85 1011 3 4.828032 0 0
8:29 am 08:29 Cloudy with Light Rain 59 15 58 14.4 96 96 Calm 29.83 1010 2 3.218688 0.03 0.762
8:50 am 08:50 Cloudy with Light Rain 61 16 61 16 100 100 SE 7 11 29.83 1010 2.5 4.02336 0 0
8:52 am 08:52 Cloudy with Light Rain 60 15.6 60 15.6 100 100 SE 6 9 29.83 1010 2.5 4.02336 0.05 1.27
8:59 am 08:59 Cloudy with Light Rain 60 15.6 60 15.6 100 100 SE 13 20 29.83 1010 1.25 2.01168 0.01 0.254
9:09 am 09:09 Cloudy with Light Rain 60 15.6 60 15.6 100 100 SSE 7 11 29.83 1010 3 4.828032 0.04 1.016
9:11 am 09:11 Cloudy with Light Rain 60 15.6 60 15.6 100 100 S 5 7 29.83 1010 4 6.437376 0.05 1.27
9:13 am 09:13 Cloudy with Light Rain 60 15.6 60 15.6 100 100 S 5 7 29.83 1010 2 3.218688 0.05 1.27
9:23 am 09:23 Cloudy with Rain 60 15.6 60 15.6 100 100 SSE 5 7 29.83 1010 1.5 2.414016 0.07 1.778
9:48 am 09:48 Cloudy with Rain 63 17 63 17 100 100 SSE 3 6 29.83 1010 1 1.609344 0 0
9:52 am 09:52 Cloudy with Light Rain 62 16.7 62 16.7 100 100 S 6 9 29.83 1010 1 1.609344 0.14 3.556
10:01 am 10:01 Cloudy with Light Rain 60 15.6 60 15.6 100 100 SE 3 6 29.8 1009 0.25 0.402336 0.01 0.254
10:11 am 10:11 Cloudy with Light Rain 60 15.6 60 15.6 100 100 Calm 29.8 1009 1.5 2.414016 0.01 0.254
10:19 am 10:19 Cloudy with Light Rain 60 15.6 60 15.6 100 100 Calm 29.8 1009 2 3.218688 0.01 0.254
10:28 am 10:28 Cloudy with Light Rain 61 16 61 16 100 100 Calm 29.8 1009 3 4.828032 0 0
10:52 am 10:52 Cloudy with Mist and Fog 63 17.2 63 17.2 100 100 S 9 15 29.8 1009 4 6.437376 0.01 0.254
11:06 am 11:06 Cloudy with Mist and Fog 63 17 63 17 100 100 S 8 13 29.77 1008 6 9.656064 0 0
11:44 am 11:44 Cloudy with Mist and Fog 63 17 63 17 100 100 S 12 19 29.74 1007 6 9.656064 0 0
11:52 am 11:52 Cloudy 64 17.8 64 17.8 100 100 S 9 15 29.74 1007 7 11.265408 0 0
12:14 pm 12:14 Cloudy 64 18 64 18 100 100 S 8 13 29.74 1007 9 14.484096 0 0
12:27 pm 12:27 Cloudy 64 17.8 64 17.8 100 100 S 9 15 29.74 1007 8 12.874752 0 0
12:49 pm 12:49 Cloudy 68 20 66 19 94 94 SSW 9 15 29.74 1007 10 16.09344 0 0
12:52 pm 12:52 Cloudy 68 20 66 18.9 93 93 S 7 11 29.74 1007 10 16.09344 0 0
1:52 pm 13:52 Cloudy 67 19.4 64 17.8 91 91 S 8 13 29.71 1006 10 16.09344 0 0
2:52 pm 14:52 Cloudy 67 19.4 64 17.8 91 91 SSW 7 11 29.71 1006 10 16.09344 0 0
3:52 pm 15:52 Mostly Cloudy 66 18.9 63 17.2 90 90 S 8 13 29.71 1006 10 16.09344 0 0
4:52 pm 16:52 Cloudy 64 17.8 61 16.1 90 90 S 7 11 29.68 1005 10 16.09344 0.001 0.001
5:52 pm 17:52 Cloudy 65 18.3 61 16.1 87 87 S 7 11 29.65 1004 10 16.09344 0 0
6:40 pm 18:40 Cloudy 64 18 59 15 83 83 NW 21 33 29.68 1005 10 16.09344 0 0
6:46 pm 18:46 Cloudy 64 18 59 15 83 83 NNW 23 37 29.68 1005 10 16.09344 0 0
6:52 pm 18:52 Cloudy 62 16.7 58 14.4 86 86 NNW 13 20 29.65 1004 10 16.09344 0 0
7:52 pm 19:52 Mostly Cloudy 60 15.6 57 13.9 90 90 N 7 11 29.65 1004 10 16.09344 0 0
8:13 pm 20:13 Mostly Cloudy 59 15 57 13.9 93 93 NE 6 9 29.62 1003 10 16.09344 0 0
8:52 pm 20:52 Cloudy 59 15 57 13.9 93 93 NE 8 13 29.59 1002 10 16.09344 0 0
9:16 pm 21:16 Cloudy with Rain 61 16 57 14 88 88 NW 16 26 29.59 1002 4 6.437376 0 0
9:21 pm 21:21 Cloudy with Heavy Rain 61 16.1 59 15 93 93 WNW 17 28 29.62 1003 2 3.218688 0.06 1.524
9:29 pm 21:29 Cloudy with Rain 62 16.7 60 15.6 93 93 W 10 17 29.62 1003 3 4.828032 0.13 3.302
9:35 pm 21:35 Cloudy with Light Rain 62 16.7 60 15.6 93 93 W 9 15 29.62 1003 8 12.874752 0.14 3.556
9:52 pm 21:52 Cloudy with Light Rain 60 15.6 59 15 96 96 SE 6 9 29.56 1001 10 16.09344 0.15 3.81
10:44 pm 22:44 Mostly Cloudy with Light Rain 61 16 61 16 100 100 SSW 9 15 29.59 1002 10 16.09344 0 0
10:52 pm 22:52 Mostly Cloudy 61 16.1 60 15.6 97 97 S 8 13 29.59 1002 10 16.09344 0.01 0.254
10:59 pm 22:59 Partly Cloudy 61 16.1 61 16.1 100 100 S 10 17 29.56 1001 10 16.09344 0 0
11:06 pm 23:06 Mostly Cloudy 61 16 61 16 100 100 S 8 13 29.56 1001 10 16.09344 0 0
11:52 pm 23:52 Cloudy 62 16.7 61 16.1 96 96 SSW 10 17 29.56 1001 10 16.09344 0 0

Powered by AerisWeather